N2PUI Weather Reports


time (UTC)temp
C
wind
direction
speed
KPH
gust
KPH
rain 1hr
cm
rain 24hr
cm
rain mn
cm
humidity
%
barometer
mb
20260906092238 13 186 0.0 0.0 0.00 0.00 0.00 95 1016.2
20260906091734 13 182 0.0 0.0 0.00 0.00 0.00 95 1016.1
20260906091230 13 184 0.0 0.0 0.00 0.00 0.00 95 1016.3
20260906090727 13 182 0.0 0.0 0.00 0.00 0.00 95 1016.0
20260906090225 13 193 1.6 1.6 0.00 0.00 0.00 95 1016.0
20260906085724 13 182 0.0 0.0 0.00 0.00 0.00 95 1016.1
20260906085223 13 185 0.0 0.0 0.00 0.00 0.00 95 1015.9
20260906084718 14 187 0.0 0.0 0.00 0.00 0.00 95 1016.0
20260906084212 14 194 0.0 0.0 0.00 0.00 0.00 95 1015.9
20260906083708 13 191 0.0 0.0 0.00 0.00 0.00 95 1015.9
20260906083158 13 179 0.0 0.0 0.00 0.00 0.00 95 1015.7
20260906082652 13 160 0.0 0.0 0.00 0.00 0.00 95 1015.7
20260906082148 13 165 0.0 0.0 0.00 0.00 0.00 95 1015.6
20260906081643 13 165 0.0 0.0 0.00 0.00 0.00 95 1015.5
20260906081138 13 166 0.0 0.0 0.00 0.00 0.00 95 1015.6
20260906080635 13 166 0.0 0.0 0.00 0.00 0.00 95 1015.4
20260906080130 13 166 0.0 0.0 0.00 0.00 0.00 95 1015.5
20260906075625 13 166 0.0 0.0 0.00 0.00 0.00 95 1015.5
20260906075119 13 166 0.0 0.0 0.00 0.00 0.00 95 1015.4
20260906074615 13 166 0.0 0.0 0.00 0.00 0.00 95 1015.7
20260906074113 13 166 0.0 0.0 0.00 0.00 0.00 95 1015.5
20260906073608 13 166 0.0 0.0 0.00 0.00 0.00 95 1015.6
20260906073104 13 166 0.0 0.0 0.00 0.00 0.00 95 1015.6
20260906072559 13 166 0.0 0.0 0.00 0.00 0.00 95 1015.5
20260906072055 13 166 0.0 0.0 0.00 0.00 0.00 95 1015.5
20260906071551 13 166 0.0 0.0 0.00 0.00 0.00 95 1015.7
20260906071045 13 165 0.0 0.0 0.00 0.00 0.00 95 1015.8
20260906070542 13 166 0.0 0.0 0.00 0.00 0.00 95 1015.9
20260906070037 13 165 0.0 0.0 0.00 0.00 0.00 95 1015.6
20260906065536 13 165 0.0 0.0 0.00 0.00 0.00 95 1015.6
20260906065033 13 166 0.0 0.0 0.00 0.00 0.00 95 1015.6
20260906064528 13 166 0.0 0.0 0.00 0.00 0.00 95 1015.6
20260906064023 13 166 0.0 0.0 0.00 0.00 0.00 95 1015.4
20260906063519 13 172 0.0 0.0 0.00 0.00 0.00 95 1015.8
20260906063015 13 172 0.0 0.0 0.00 0.00 0.00 95 1015.7
20260906062509 13 173 0.0 0.0 0.00 0.00 0.00 95 1015.8
20260906062004 13 173 0.0 0.0 0.00 0.00 0.00 95 1015.9
20260906061459 13 172 0.0 0.0 0.00 0.00 0.00 95 1015.7
20260906060954 13 172 0.0 0.0 0.00 0.00 0.00 95 1016.0
20260906060451 13 173 0.0 0.0 0.00 0.00 0.00 95 1015.9
20260906055947 13 173 0.0 0.0 0.00 0.00 0.00 95 1015.9
20260906055443 13 173 0.0 0.0 0.00 0.00 0.00 95 1015.8
20260906054938 13 173 0.0 0.0 0.00 0.00 0.00 95 1016.0
20260906054433 13 173 0.0 0.0 0.00 0.00 0.00 95 1015.9
20260906053928 13 173 0.0 0.0 0.00 0.00 0.00 95 1015.8
20260906053424 13 173 0.0 0.0 0.00 0.00 0.00 95 1016.0
20260906052920 13 172 0.0 0.0 0.00 0.00 0.00 95 1015.9
20260906052416 13 173 0.0 0.0 0.00 0.00 0.00 95 1015.9
20260906051913 13 172 0.0 0.0 0.00 0.00 0.00 95 1015.7
20260906051413 13 154 0.0 0.0 0.00 0.00 0.00 95 1016.0
20260906050908 13 153 0.0 0.0 0.00 0.00 0.00 95 1016.2
20260906050403 13 153 0.0 0.0 0.00 0.00 0.00 95 1015.9
20260906045902 13 154 0.0 0.0 0.00 0.00 0.00 95 1015.7
20260906045401 13 154 0.0 0.0 0.00 0.00 0.00 95 1016.0
20260906044857 13 153 0.0 0.0 0.00 0.00 0.00 95 1015.8
20260906044352 13 153 0.0 0.0 0.00 0.00 0.00 95 1015.5
20260906043848 13 155 0.0 0.0 0.00 0.00 0.00 95 1015.9
20260906043343 13 155 0.0 0.0 0.00 0.00 0.00 95 1016.0
20260906042838 13 155 0.0 0.0 0.00 0.00 0.00 95 1015.8
20260906042337 13 156 0.0 0.0 0.00 0.00 0.00 95 1015.9
20260906041833 13 155 0.0 0.0 0.00 0.00 0.00 95 1015.9
20260906041329 13 155 0.0 0.0 0.00 0.00 0.00 95 1015.8
20260906040828 13 155 0.0 0.0 0.00 0.00 0.00 95 1015.7
20260906040324 14 157 0.0 0.0 0.00 0.00 0.00 95 1015.9
20260906035819 13 156 0.0 0.0 0.00 0.00 0.00 95 1016.1
20260906035314 14 155 0.0 0.0 0.00 0.00 0.00 95 1015.8
20260906034809 14 159 0.0 0.0 0.00 0.00 0.00 95 1015.7
20260906034304 14 180 0.0 0.0 0.00 0.00 0.00 95 1015.9
20260906033800 15 182 0.0 0.0 0.00 0.00 0.00 95 1015.9
20260906033259 15 165 0.0 0.0 0.00 0.00 0.00 95 1015.7
20260906032756 15 185 0.0 0.0 0.00 0.00 0.00 95 1015.6
20260906032256 15 189 0.0 0.0 0.00 0.00 0.00 95 1015.7
20260906031751 15 193 0.0 0.0 0.00 0.00 0.00 95 1015.8
20260906031247 15 191 0.0 0.0 0.00 0.00 0.00 95 1015.7
20260906030741 15 191 0.0 0.0 0.00 0.00 0.00 95 1015.6
20260906030236 15 190 0.0 0.0 0.00 0.00 0.00 95 1015.6
20260906025735 15 188 0.0 0.0 0.00 0.00 0.00 95 1015.7
20260906025235 15 189 0.0 0.0 0.00 0.00 0.00 95 1015.6
20260906024734 15 190 0.0 0.0 0.00 0.00 0.00 94 1015.8
20260906024228 15 191 0.0 0.0 0.00 0.00 0.00 94 1015.4
20260906023724 15 189 0.0 0.0 0.00 0.00 0.00 94 1015.5
20260906023219 15 189 0.0 0.0 0.00 0.00 0.00 94 1015.5
20260906022715 15 189 0.0 0.0 0.00 0.00 0.00 94 1015.5
20260906022210 15 189 0.0 0.0 0.00 0.00 0.00 93 1015.7
20260906021705 15 189 0.0 0.0 0.00 0.00 0.00 93 1015.5
20260906021203 15 189 0.0 0.0 0.00 0.00 0.00 93 1015.3
20260906020658 15 188 0.0 0.0 0.00 0.00 0.00 93 1015.5
20260906020148 15 186 0.0 0.0 0.00 0.00 0.00 93 1015.3
20260906015642 15 182 0.0 0.0 0.00 0.00 0.00 92 1015.4
20260906015140 16 181 0.0 0.0 0.00 0.00 0.00 92 1015.3
20260906014635 16 175 1.6 1.6 0.00 0.00 0.00 92 1015.5
20260906014131 16 189 0.0 0.0 0.00 0.00 0.00 92 1015.3
20260906013627 16 152 0.0 0.0 0.00 0.00 0.00 92 1015.2
20260906013122 16 149 1.6 1.6 0.00 0.00 0.00 92 1015.1
20260906012617 16 155 0.0 0.0 0.00 0.00 0.00 91 1015.1
20260906012117 16 148 0.0 1.6 0.00 0.00 0.00 91 1015.1
20260906011612 16 134 0.0 0.0 0.00 0.00 0.00 91 1015.3
20260906011107 16 157 0.0 0.0 0.00 0.00 0.00 91 1015.2
20260906010603 16 150 0.0 0.0 0.00 0.00 0.00 90 1015.1
20260906010059 16 134 0.0 1.6 0.00 0.00 0.00 90 1015.1
20260906005558 16 118 1.6 1.6 0.00 0.00 0.00 90 1015.0
20260906005056 16 187 0.0 0.0 0.00 0.00 0.00 89 1015.0
20260906004551 16 168 0.0 1.6 0.00 0.00 0.00 89 1014.9
20260906004045 17 191 0.0 0.0 0.00 0.00 0.00 89 1014.8
20260906003540 17 190 0.0 0.0 0.00 0.00 0.00 88 1014.8
20260906003036 17 193 1.6 1.6 0.00 0.00 0.00 88 1014.7
20260906002531 17 153 1.6 1.6 0.00 0.00 0.00 87 1014.6
20260906002025 17 139 1.6 1.6 0.00 0.00 0.00 87 1015.0
20260906001521 17 197 0.0 0.0 0.00 0.00 0.00 86 1014.8
20260906001016 17 197 0.0 0.0 0.00 0.00 0.00 86 1014.7
20260906000512 18 197 0.0 0.0 0.00 0.00 0.00 85 1014.6
20260906000006 18 196 0.0 0.0 0.00 0.00 0.00 84 1014.6
20260905235500 18 196 0.0 0.0 0.00 0.00 0.00 84 1014.7
20260905234955 18 196 0.0 0.0 0.00 0.00 0.00 83 1014.7
20260905234451 18 196 0.0 0.0 0.00 0.00 0.00 82 1014.7
20260905233950 18 196 0.0 0.0 0.00 0.00 0.00 82 1014.7
20260905233446 19 195 0.0 0.0 0.00 0.00 0.00 81 1014.5
20260905232945 19 195 0.0 0.0 0.00 0.00 0.00 80 1014.7
20260905232441 19 146 0.0 0.0 0.00 0.00 0.00 79 1014.7
20260905231937 19 131 1.6 1.6 0.00 0.00 0.00 79 1014.7
20260905231432 20 144 1.6 1.6 0.00 0.00 0.00 78 1014.7
20260905230928 20 146 1.6 1.6 0.00 0.00 0.00 77 1014.7
20260905230427 20 31 4.8 4.8 0.00 0.00 0.00 77 1014.7
20260905225925 20 146 0.0 0.0 0.00 0.00 0.00 77 1014.7
20260905225420 20 138 0.0 0.0 0.00 0.00 0.00 77 1014.6
20260905224915 20 45 4.8 4.8 0.00 0.00 0.00 76 1014.5
20260905224411 20 179 1.6 1.6 0.00 0.00 0.00 76 1014.3
20260905223905 20 86 3.2 3.2 0.00 0.00 0.00 76 1014.6
20260905223403 20 229 1.6 3.2 0.00 0.00 0.00 75 1014.5
20260905222858 20 117 0.0 1.6 0.00 0.00 0.00 75 1014.5
20260905222356 20 87 3.2 3.2 0.00 0.00 0.00 74 1014.7
20260905221852 20 142 0.0 1.6 0.00 0.00 0.00 74 1014.6
20260905221349 21 69 3.2 3.2 0.00 0.00 0.00 73 1014.5
20260905220839 21 235 1.6 3.2 0.00 0.00 0.00 72 1014.3
20260905220335 21 173 1.6 1.6 0.00 0.00 0.00 72 1014.1
20260905215834 21 329 4.8 4.8 0.00 0.00 0.00 72 1014.2
20260905215330 21 315 6.4 8.0 0.00 0.00 0.00 71 1014.1
20260905214826 21 30 4.8 4.8 0.00 0.00 0.00 70 1014.0
20260905214321 21 72 1.6 1.6 0.00 0.00 0.00 70 1013.9
20260905213816 22 26 3.2 3.2 0.00 0.00 0.00 69 1013.8
20260905213312 22 142 1.6 1.6 0.00 0.00 0.00 70 1013.7
20260905212807 22 156 0.0 0.0 0.00 0.00 0.00 71 1013.8
20260905212307 22 297 8.0 9.7 0.00 0.00 0.00 68 1013.8
20260905211801 22 199 1.6 1.6 0.00 0.00 0.00 69 1013.8
20260905211256 22 206 4.8 4.8 0.00 0.00 0.00 69 1013.8
20260905210754 22 258 1.6 1.6 0.00 0.00 0.00 69 1013.9
20260905210253 22 233 1.6 3.2 0.00 0.00 0.00 69 1013.6
20260905205751 22 225 3.2 3.2 0.00 0.00 0.00 68 1013.8
20260905205246 22 136 1.6 1.6 0.00 0.00 0.00 70 1013.5
20260905204746 22 164 1.6 1.6 0.00 0.00 0.00 70 1013.6
20260905204242 22 291 3.2 3.2 0.00 0.00 0.00 69 1013.7
20260905203741 22 196 0.0 1.6 0.00 0.00 0.00 69 1013.6
20260905203237 22 357 1.6 4.8 0.00 0.00 0.00 69 1013.6
20260905202732 22 195 0.0 1.6 0.00 0.00 0.00 69 1013.9
20260905202227 22 185 0.0 1.6 0.00 0.00 0.00 70 1013.8
20260905201722 22 130 1.6 1.6 0.00 0.00 0.00 70 1013.9
20260905201217 22 351 4.8 4.8 0.00 0.00 0.00 69 1013.6
20260905200712 22 45 3.2 3.2 0.00 0.00 0.00 67 1013.6
20260905200208 22 173 1.6 1.6 0.00 0.00 0.00 67 1013.7
20260905195706 22 171 1.6 1.6 0.00 0.00 0.00 68 1013.8
20260905195200 22 161 0.0 0.0 0.00 0.00 0.00 66 1013.7
20260905194650 22 198 1.6 1.6 0.00 0.00 0.00 68 1013.4
20260905194149 22 174 0.0 1.6 0.00 0.00 0.00 68 1013.9
20260905193638 21 169 0.0 0.0 0.00 0.00 0.00 70 1013.7
20260905193133 21 147 1.6 1.6 0.00 0.00 0.00 69 1013.8
20260905192629 22 317 6.4 8.0 0.00 0.00 0.00 67 1013.8
20260905192125 22 0 3.2 4.8 0.00 0.00 0.00 65 1013.5
20260905191625 22 238 3.2 4.8 0.00 0.00 0.00 65 1013.7
20260905191123 23 193 1.6 1.6 0.00 0.00 0.00 68 1013.8
20260905190621 22 131 0.0 0.0 0.00 0.00 0.00 66 1013.7
20260905190120 22 337 3.2 4.8 0.00 0.00 0.00 66 1013.8
20260905185619 22 108 3.2 4.8 0.00 0.00 0.00 65 1013.7
20260905185114 23 271 3.2 3.2 0.00 0.00 0.00 62 1013.7
20260905184609 22 214 4.8 4.8 0.00 0.00 0.00 61 1013.7
20260905184108 22 15 4.8 4.8 0.00 0.00 0.00 63 1013.8
20260905183607 23 228 3.2 3.2 0.00 0.00 0.00 65 1013.7
20260905183103 23 10 3.2 3.2 0.00 0.00 0.00 61 1013.5
20260905182602 23 283 3.2 3.2 0.00 0.00 0.00 63 1013.6
20260905182056 22 64 3.2 4.8 0.00 0.00 0.00 65 1013.4
20260905181551 22 176 0.0 0.0 0.00 0.00 0.00 64 1013.7
20260905181050 22 296 6.4 8.0 0.00 0.00 0.00 62 1013.9
20260905180545 23 292 6.4 9.7 0.00 0.00 0.00 65 1013.7
20260905180041 22 359 3.2 4.8 0.00 0.00 0.00 68 1013.6
20260905175539 22 121 1.6 1.6 0.00 0.00 0.00 68 1013.8
20260905175036 22 7 3.2 3.2 0.00 0.00 0.00 66 1013.8
20260905174531 22 325 4.8 8.0 0.00 0.00 0.00 66 1013.9
20260905174026 22 34 4.8 8.0 0.00 0.00 0.00 65 1013.7
20260905173523 22 207 1.6 3.2 0.00 0.00 0.00 68 1013.6
20260905173018 22 224 1.6 1.6 0.00 0.00 0.00 67 1013.8
20260905172516 22 14 6.4 11.3 0.00 0.00 0.00 66 1013.9
20260905172012 22 323 4.8 8.0 0.00 0.00 0.00 65 1013.8
20260905171508 22 255 8.0 8.0 0.00 0.00 0.00 64 1014.0
20260905171003 22 182 0.0 0.0 0.00 0.00 0.00 69 1014.0
20260905170500 21 97 1.6 3.2 0.00 0.00 0.00 70 1014.1
20260905165954 21 359 3.2 3.2 0.00 0.00 0.00 69 1013.9
20260905165449 22 78 1.6 1.6 0.00 0.00 0.00 70 1014.1
20260905164944 21 229 4.8 8.0 0.00 0.00 0.00 68 1014.2
20260905164444 21 323 6.4 9.7 0.00 0.00 0.00 68 1013.9
20260905163939 21 251 4.8 4.8 0.00 0.00 0.00 70 1014.0
20260905163436 21 216 1.6 1.6 0.00 0.00 0.00 69 1014.1
20260905162931 22 284 9.7 11.3 0.00 0.00 0.00 66 1014.1
20260905162426 22 150 0.0 1.6 0.00 0.00 0.00 67 1013.9
20260905161921 21 12 4.8 8.0 0.00 0.00 0.00 67 1013.9
20260905161420 22 61 4.8 4.8 0.00 0.00 0.00 67 1014.3
20260905160918 22 263 4.8 8.0 0.00 0.00 0.00 67 1014.1
20260905160412 22 315 4.8 8.0 0.00 0.00 0.00 67 1014.2
20260905155906 22 277 8.0 11.3 0.00 0.00 0.00 66 1014.2
20260905155401 21 252 11.3 16.1 0.00 0.00 0.00 68 1014.3
20260905154900 22 102 1.6 3.2 0.00 0.00 0.00 68 1014.3
20260905154356 21 226 1.6 3.2 0.00 0.00 0.00 70 1014.3
20260905153851 21 42 4.8 4.8 0.00 0.00 0.00 69 1014.4
20260905153347 21 216 1.6 1.6 0.00 0.00 0.00 69 1014.5
20260905152847 22 331 3.2 4.8 0.00 0.00 0.00 67 1014.4
20260905152346 21 194 3.2 3.2 0.00 0.00 0.00 71 1014.1
20260905151841 21 226 1.6 4.8 0.00 0.00 0.00 71 1014.4
20260905151337 21 250 4.8 9.7 0.00 0.00 0.00 72 1014.4
20260905150837 21 323 3.2 3.2 0.00 0.00 0.00 72 1014.7
20260905150331 21 255 1.6 3.2 0.00 0.00 0.00 73 1014.7
20260905145828 21 323 8.0 9.7 0.00 0.00 0.00 71 1014.4
20260905145323 21 11 4.8 4.8 0.00 0.00 0.00 72 1014.4
20260905144822 21 191 1.6 1.6 0.00 0.00 0.00 73 1014.4
20260905144318 21 281 4.8 4.8 0.00 0.00 0.00 74 1014.3
20260905143816 20 223 3.2 3.2 0.00 0.00 0.00 76 1014.4
20260905143311 20 252 9.7 11.3 0.00 0.00 0.00 77 1014.3
20260905142810 19 231 3.2 4.8 0.00 0.00 0.00 79 1014.5
20260905142306 19 215 4.8 4.8 0.00 0.00 0.00 80 1014.5
20260905141800 19 191 1.6 3.2 0.00 0.00 0.00 81 1014.6
20260905141255 19 348 4.8 4.8 0.00 0.00 0.00 81 1014.4
20260905140751 20 287 8.0 9.7 0.00 0.00 0.00 79 1014.5
20260905140251 20 208 1.6 3.2 0.00 0.00 0.00 79 1014.3
20260905135749 20 276 4.8 4.8 0.00 0.00 0.00 80 1014.5
20260905135245 20 214 4.8 8.0 0.00 0.00 0.00 81 1014.4
20260905134744 20 39 3.2 4.8 0.00 0.00 0.00 82 1014.6
20260905134239 20 283 4.8 8.0 0.00 0.00 0.00 83 1014.5
20260905133734 18 202 3.2 3.2 0.00 0.00 0.00 85 1014.7
20260905133229 18 279 3.2 4.8 0.00 0.00 0.00 86 1014.5
20260905132728 18 21 6.4 8.0 0.00 0.00 0.00 86 1014.7
20260905132224 18 177 1.6 1.6 0.00 0.00 0.00 90 1014.6
20260905131719 17 178 1.6 1.6 0.00 0.00 0.00 94 1014.2
20260905131214 17 161 1.6 1.6 0.00 0.00 0.00 95 1014.4
20260905130713 17 172 1.6 1.6 0.00 0.00 0.00 95 1014.4
20260905130208 16 135 1.6 1.6 0.00 0.00 0.00 95 1014.4
20260905125703 16 182 1.6 1.6 0.00 0.00 0.00 95 1014.8
20260905125158 16 170 0.0 0.0 0.00 0.00 0.00 95 1014.8
20260905124654 16 170 0.0 0.0 0.00 0.00 0.00 95 1014.7
20260905124150 16 170 0.0 0.0 0.00 0.00 0.00 95 1014.9
20260905123645 16 162 0.0 0.0 0.00 0.00 0.00 95 1015.0
20260905123142 15 185 0.0 0.0 0.00 0.00 0.00 95 1015.1
20260905122641 15 199 1.6 1.6 0.00 0.00 0.00 95 1015.0
20260905122136 15 187 0.0 0.0 0.00 0.00 0.00 95 1015.0
20260905121631 15 200 1.6 1.6 0.00 0.00 0.00 95 1014.9
20260905121127 14 180 0.0 0.0 0.00 0.00 0.00 95 1014.9
20260905120625 14 180 0.0 0.0 0.00 0.00 0.00 95 1014.6
20260905120121 14 205 1.6 1.6 0.00 0.00 0.00 95 1014.6
20260905115620 15 180 0.0 0.0 0.00 0.00 0.00 95 1014.7
20260905115115 15 197 0.0 0.0 0.00 0.00 0.00 95 1014.6
20260905114614 15 164 0.0 0.0 0.00 0.00 0.00 95 1014.3
20260905114113 14 129 0.0 1.6 0.00 0.00 0.00 95 1014.1
20260905113609 14 173 0.0 0.0 0.00 0.00 0.00 95 1014.4
20260905113104 14 155 0.0 0.0 0.00 0.00 0.00 95 1014.5
20260905112558 14 212 0.0 0.0 0.00 0.00 0.00 95 1014.3
20260905112054 14 189 0.0 0.0 0.00 0.00 0.00 95 1014.3
20260905111549 14 114 3.2 3.2 0.00 0.00 0.00 95 1014.2
20260905111048 14 67 1.6 3.2 0.00 0.00 0.00 95 1014.0
20260905110547 14 178 0.0 0.0 0.00 0.00 0.00 95 1014.3
20260905110043 14 189 0.0 0.0 0.00 0.00 0.00 95 1014.4
20260905105542 14 207 0.0 0.0 0.00 0.00 0.00 95 1014.1
20260905105042 13 185 0.0 0.0 0.00 0.00 0.00 95 1013.9
20260905104538 13 199 0.0 0.0 0.00 0.00 0.00 95 1013.8
20260905104037 13 192 0.0 0.0 0.00 0.00 0.00 95 1013.7
20260905103533 13 180 0.0 0.0 0.00 0.00 0.00 95 1013.6
20260905103029 13 200 0.0 0.0 0.00 0.00 0.00 95 1013.7
20260905102524 13 189 0.0 0.0 0.00 0.00 0.00 95 1013.8
20260905102021 13 175 0.0 0.0 0.00 0.00 0.00 95 1013.5
20260905101519 13 182 0.0 0.0 0.00 0.00 0.00 95 1013.8
20260905101017 13 153 0.0 0.0 0.00 0.00 0.00 95 1013.8
20260905100514 13 153 0.0 0.0 0.00 0.00 0.00 95 1013.6
20260905100008 13 152 0.0 0.0 0.00 0.00 0.00 95 1013.5
20260905095503 13 152 0.0 0.0 0.00 0.00 0.00 95 1013.4
20260905094957 13 152 0.0 0.0 0.00 0.00 0.00 95 1013.4
20260905094453 13 152 0.0 0.0 0.00 0.00 0.00 95 1013.3
20260905093951 13 152 0.0 0.0 0.00 0.00 0.00 95 1013.3
20260905093447 13 154 0.0 0.0 0.00 0.00 0.00 95 1013.1
20260905092943 13 153 0.0 0.0 0.00 0.00 0.00 95 1013.5